Wausau, WI

2:04 PM CDT on May 29, 2017 (GMT -0500)
Wausau Downtown

Weather History for KAUW - December, 2012

Change the Weather History Date:

Friday, December 28, 2012

  Actual Average Record
Temperature  
Mean Temperature 19 °F 16 °F  
Max Temperature 23 °F 24 °F 48 °F (1984)
Min Temperature 14 °F 8 °F -23 °F (1924)
Degree Days  
Heating Degree Days 46 49  
Month to date heating degree days 1075 1279  
Since 1 July heating degree days 2844 3138  
Cooling Degree Days 0 0  
Month to date cooling degree days 0 0  
Year to date cooling degree days 725 407  
Moisture  
Dew Point 17 °F    
Average Humidity 83    
Maximum Humidity 92    
Minimum Humidity 74    
Precipitation  
Precipitation 0.18 in 0.04 in 0.66 in (1948)
Month to date precipitation 1.47 1.25  
Year to date precipitation 29.32 32.30  
Snow  
Snow 2.80 in 0.40 in 6.20 in (2015)
Month to date snowfall 19.1 12.5  
Since 1 July snowfall 21.4 20.8  
Snow Depth -    
Sea Level Pressure  
Sea Level Pressure 30.02 in    
Wind  
Wind Speed 4 mph (ENE)    
Max Wind Speed 12 mph    
Max Gust Speed 16 mph    
Visibility 3 miles    
Events Fog , Snow    
T = Trace of Precipitation, MM = Missing Value Source: NWS Daily Summary

Daily Weather History Graph

Daily Weather History Graph

Search for Another Location

Airport or City:

Trip Planner

Search our weather history database for the weather conditions in past years. The results will help you decide how hot, cold, wet, or windy it might be!

Date:

Astronomy

Dec. 28, 2012 Rise Set
Actual Time 7:36 AM CST 4:24 PM CST
Civil Twilight 7:02 AM CST 4:58 PM CST
Nautical Twilight 6:25 AM CST 5:35 PM CST
Astronomical Twilight 5:49 AM CST 6:11 PM CST
Moon 5:04 PM CST (12/28) 7:28 AM CST (12/28)
Length of Visible Light 9h 56m
Length of Day
8h 48m
Full, 100% of the Moon is Illuminated
Dec 28
Full
Jan 4
Last Quarter
Jan 11
New
Jan 18
First Quarter
Jan 26
Full

Hourly Weather History & Observations

Time (CST) Temp. Windchill Dew Point Humidity Pressure Visibility Wind Dir Wind Speed Gust Speed Precip Events Conditions
12:26 AM 17.6 °F - 10.4 °F 73% 30.11 in 10.0 mi Calm Calm - N/A   Overcast
12:54 AM 17.1 °F 11.7 °F 10.0 °F 74% 30.19 in 10.0 mi NNE 3.5 mph - N/A   Overcast
1:54 AM 14.0 °F - 10.0 °F 84% 30.19 in 10.0 mi Calm Calm - N/A   Overcast
2:54 AM 16.0 °F - 10.9 °F 81% 30.18 in 10.0 mi Calm Calm - N/A   Overcast
3:54 AM 16.0 °F - 10.9 °F 81% 30.17 in 10.0 mi Calm Calm - N/A   Overcast
5:54 AM 18.0 °F - 12.9 °F 81% 30.15 in 9.0 mi Calm Calm - 0.00 in   Overcast
6:37 AM 17.6 °F 12.3 °F 12.2 °F 79% 30.06 in 2.0 mi NE 3.5 mph - 0.00 in Snow Light Snow
6:54 AM 18.0 °F 11.1 °F 14.0 °F 84% 30.14 in 3.0 mi NE 4.6 mph - 0.00 in Snow Light Snow
7:54 AM 17.1 °F 8.7 °F 12.9 °F 84% 30.14 in 2.0 mi ENE 5.8 mph - 0.00 in Snow Light Snow
8:05 AM 17.6 °F 10.7 °F 12.2 °F 79% 30.06 in 4.0 mi ENE 4.6 mph - 0.00 in   Overcast
8:13 AM 17.6 °F 10.7 °F 12.2 °F 79% 30.06 in 9.0 mi ENE 4.6 mph - 0.00 in   Overcast
8:54 AM 18.0 °F 11.1 °F 12.9 °F 81% 30.13 in 9.0 mi ENE 4.6 mph - 0.00 in   Overcast
9:54 AM 19.0 °F 10.0 °F 14.0 °F 81% 30.14 in 6.0 mi East 6.9 mph - N/A   Haze
10:20 AM 19.4 °F 10.4 °F 15.8 °F 86% 30.05 in 2.0 mi East 6.9 mph - 0.00 in Snow Light Snow
10:27 AM 19.4 °F 9.5 °F 15.8 °F 86% 30.05 in 1.8 mi East 8.1 mph - 0.00 in Snow Light Snow
10:45 AM 19.4 °F 10.4 °F 15.8 °F 86% 30.04 in 2.0 mi East 6.9 mph - 0.00 in Snow Light Snow
10:54 AM 19.9 °F 11.1 °F 16.0 °F 85% 30.12 in 3.0 mi East 6.9 mph - 0.00 in Snow Light Snow
11:26 AM 21.2 °F 10.9 °F 15.8 °F 80% 30.02 in 2.5 mi East 9.2 mph - 0.00 in Snow Light Snow
11:37 AM 21.2 °F 11.7 °F 15.8 °F 80% 30.02 in 1.8 mi East 8.1 mph - 0.00 in Snow Light Snow
11:52 AM 21.2 °F 10.9 °F 17.6 °F 86% 30.01 in 2.0 mi East 9.2 mph - 0.00 in Snow Light Snow
11:54 AM 21.0 °F 11.4 °F 17.1 °F 85% 30.09 in 2.0 mi East 8.1 mph - 0.00 in Snow Light Snow
12:15 PM 21.2 °F 11.7 °F 17.6 °F 86% 30.00 in 1.8 mi ENE 8.1 mph - 0.00 in Snow Light Snow
12:54 PM 21.9 °F 13.4 °F 17.1 °F 82% 30.05 in 1.0 mi East 6.9 mph - 0.00 in Snow Light Snow
1:08 PM 21.2 °F 11.7 °F 17.6 °F 86% 29.97 in 0.8 mi East 8.1 mph - 0.00 in Snow Light Snow
1:23 PM 21.2 °F 10.1 °F 17.6 °F 86% 29.96 in 1.2 mi ENE 10.4 mph - 0.00 in Snow Light Snow
1:54 PM 23.0 °F 15.8 °F 18.0 °F 81% 30.03 in 1.2 mi ENE 5.8 mph - 0.00 in Snow Light Snow
2:11 PM 23.0 °F 14.7 °F 17.6 °F 80% 29.95 in 1.0 mi ENE 6.9 mph - 0.00 in Snow Light Snow
2:26 PM 23.0 °F 15.8 °F 19.4 °F 86% 29.95 in 2.5 mi ENE 5.8 mph - 0.00 in Snow Light Snow
2:32 PM 23.0 °F 15.8 °F 17.6 °F 80% 29.95 in 3.0 mi ENE 5.8 mph - 0.00 in Snow Light Snow
2:54 PM 23.0 °F 13.9 °F 18.0 °F 81% 30.02 in 5.0 mi ENE 8.1 mph - 0.00 in Snow Light Snow
3:09 PM 23.0 °F 17.0 °F 17.6 °F 80% 29.95 in 4.0 mi ENE 4.6 mph - 0.00 in Snow Light Snow
3:13 PM 23.0 °F 17.0 °F 17.6 °F 80% 29.95 in 1.5 mi ENE 4.6 mph - 0.00 in Snow Light Snow
3:24 PM 23.0 °F 15.8 °F 19.4 °F 86% 29.94 in 0.5 mi NE 5.8 mph - 0.00 in Fog , Snow Snow
3:34 PM 23.0 °F 15.8 °F 19.4 °F 86% 29.94 in 0.5 mi ENE 5.8 mph - 0.01 in Fog , Snow Snow
3:47 PM 23.0 °F 15.8 °F 19.4 °F 86% 29.94 in 1.5 mi ENE 5.8 mph - 0.01 in Snow Light Snow
3:54 PM 23.0 °F 17.0 °F 19.0 °F 85% 30.02 in 1.5 mi ENE 4.6 mph - 0.01 in Snow Light Snow
4:26 PM 23.0 °F 17.0 °F 19.4 °F 86% 29.94 in 1.5 mi ENE 4.6 mph - 0.00 in Snow Light Snow
4:37 PM 23.0 °F 17.0 °F 19.4 °F 86% 29.94 in 2.5 mi NE 4.6 mph - 0.00 in Snow Light Snow
4:49 PM 23.0 °F 14.7 °F 19.4 °F 86% 29.94 in 1.8 mi NE 6.9 mph - 0.00 in Snow Light Snow
4:54 PM 23.0 °F 15.8 °F 19.0 °F 85% 30.02 in 1.8 mi NE 5.8 mph - 0.00 in Snow Light Snow
5:54 PM 23.0 °F 18.4 °F 19.9 °F 88% 30.02 in 1.8 mi NE 3.5 mph - 0.01 in Snow Light Snow
6:32 PM 23.0 °F 18.4 °F 19.4 °F 86% 29.94 in 2.0 mi NE 3.5 mph - 0.01 in Snow Light Snow
6:45 PM 23.0 °F 18.4 °F 19.4 °F 86% 29.94 in 1.8 mi NE 3.5 mph - 0.01 in Snow Light Snow
6:54 PM 23.0 °F 18.4 °F 19.9 °F 88% 30.02 in 1.5 mi NE 3.5 mph - 0.01 in Snow Light Snow
7:54 PM 23.0 °F - 19.9 °F 88% 30.01 in 1.5 mi Calm Calm - 0.02 in Snow Light Snow
8:07 PM 23.0 °F - 19.4 °F 86% 29.93 in 2.0 mi Calm Calm - 0.00 in Snow Light Snow
8:41 PM 23.0 °F - 19.4 °F 86% 29.93 in 1.8 mi Calm Calm - 0.00 in Snow Light Snow
8:51 PM 23.0 °F - 19.4 °F 86% 29.93 in 2.0 mi Calm Calm - 0.00 in Snow Light Snow
8:54 PM 23.0 °F 18.4 °F 19.9 °F 88% 30.01 in 2.0 mi North 3.5 mph - 0.00 in Snow Light Snow
9:54 PM 21.9 °F 15.7 °F 19.0 °F 89% 29.99 in 2.5 mi North 4.6 mph - 0.01 in Snow Light Snow
10:11 PM 23.0 °F 17.0 °F 19.4 °F 86% 29.91 in 3.0 mi NNW 4.6 mph - 0.00 in Snow Light Snow
10:21 PM 23.0 °F - 19.4 °F 86% 29.91 in 2.0 mi Calm Calm - 0.00 in Snow Light Snow
10:54 PM 21.9 °F 17.2 °F 19.0 °F 89% 29.98 in 3.0 mi North 3.5 mph - 0.00 in Snow Light Snow
11:54 PM 23.0 °F 18.4 °F 19.0 °F 85% 29.96 in 5.0 mi North 3.5 mph - 0.00 in Snow Light Snow